Central Park, NY

10:21 AM EDT on June 22, 2018 (GMT -0400)
Central Park

Weather History for KNYC - September, 2017

Change the Weather History Date:

Tuesday, September 26, 2017

  Actual Average Record
Temperature  
Mean Temperature 76 °F 64 °F  
Max Temperature 84 °F 71 °F 91 °F (1970)
Min Temperature 68 °F 57 °F 42 °F (1940)
Degree Days  
Heating Degree Days 0 3  
Month to date heating degree days 9 27  
Since 1 July heating degree days 9 29  
Cooling Degree Days 11 2  
Month to date cooling degree days 173 125  
Year to date cooling degree days 1167 1079  
Growing Degree Days 26 (Base 50)    
Moisture  
Dew Point 66 °F    
Average Humidity 73    
Maximum Humidity 90    
Minimum Humidity 55    
Precipitation  
Precipitation 0.00 in 0.15 in 2.34 in (2008)
Month to date precipitation 2.00 3.65  
Year to date precipitation 37.07 36.89  
Snow  
Snow 0.00 in 0.00 in 0.00 in (2002)
Month to date snowfall 0.0 0.0  
Since 1 July snowfall 0.0 0.0  
Snow Depth 0.00 in    
Sea Level Pressure  
Sea Level Pressure 30.02 in    
Wind  
Wind Speed 2 mph (ENE)    
Max Wind Speed 8 mph    
Max Gust Speed 12 mph    
Visibility 10 miles    
Events      
T = Trace of Precipitation, MM = Missing Value Source: NWS Daily Summary

Daily Weather History Graph

Daily Weather History Graph

Search for Another Location

Airport or City:

Astronomy

Sep. 26, 2017 Rise Set
Actual Time 6:47 AM EDT 6:45 PM EDT
Civil Twilight 6:20 AM EDT 7:13 PM EDT
Nautical Twilight 5:48 AM EDT 7:45 PM EDT
Astronomical Twilight 5:16 AM EDT 8:17 PM EDT
Moon 12:51 PM EDT (9/26) 10:55 PM EDT (9/26)
Length of Visible Light 12h 52m
Length of Day
11h 58m
Waxing Crescent, 36% of the Moon is Illuminated
Sep 26
Waxing Crescent
Sep 27
First Quarter
Oct 5
Full
Oct 12
Last Quarter
Oct 19
New

Hourly Weather History & Observations

Time (EDT) Temp. Heat Index Dew Point Humidity Pressure Visibility Wind Dir Wind Speed Gust Speed Precip Events Conditions
12:51 AM 71.1 °F - 64.9 °F 81% 30.03 in 10.0 mi Calm Calm - N/A   Clear
1:51 AM 70.0 °F - 64.9 °F 84% 30.04 in 10.0 mi Calm Calm - N/A   Clear
2:51 AM 70.0 °F - 64.9 °F 84% 30.04 in 10.0 mi Calm Calm - N/A   Overcast
3:51 AM 70.0 °F - 64.9 °F 84% 30.04 in 10.0 mi NE 3.5 mph - N/A   Overcast
4:51 AM 69.1 °F - 64.9 °F 87% 30.03 in 10.0 mi NE 3.5 mph - N/A   Clear
5:51 AM 69.1 °F - 66.0 °F 90% 30.03 in 9.0 mi Calm Calm - N/A   Partly Cloudy
6:51 AM 69.1 °F - 66.0 °F 90% 30.04 in 10.0 mi Variable 3.5 mph - N/A   Clear
7:44 AM 69.1 °F - 66.0 °F 90% 30.07 in 8.0 mi ENE 4.6 mph - N/A   Partly Cloudy
7:51 AM 70.0 °F - 66.0 °F 87% 30.04 in 8.0 mi Variable 3.5 mph - N/A   Partly Cloudy
8:09 AM 70.0 °F - 66.0 °F 87% 30.08 in 7.0 mi Calm Calm - N/A   Mostly Cloudy
8:51 AM 71.1 °F - 66.0 °F 84% 30.06 in 6.0 mi ESE 5.8 mph - N/A   Haze
9:51 AM 72.0 °F - 66.9 °F 84% 30.06 in 9.0 mi Calm Calm - N/A   Overcast
10:10 AM 72.0 °F - 66.9 °F 84% 30.09 in 10.0 mi Calm Calm - N/A   Overcast
10:51 AM 73.9 °F - 66.9 °F 79% 30.06 in 10.0 mi Calm Calm - N/A   Mostly Cloudy
11:04 AM 73.9 °F - 66.9 °F 79% 30.08 in 10.0 mi Calm Calm - N/A   Scattered Clouds
11:51 AM 77.0 °F - 66.9 °F 71% 30.04 in 10.0 mi Calm Calm - N/A   Clear
12:51 PM 81.0 °F 83.0 °F 66.0 °F 60% 30.02 in 10.0 mi ENE 5.8 mph - N/A   Clear
1:51 PM 78.1 °F - 66.0 °F 66% 30.00 in 10.0 mi North - - N/A   Clear
2:51 PM 82.0 °F 83.8 °F 64.9 °F 56% 29.99 in 10.0 mi ENE 5.8 mph - N/A   Clear
3:51 PM 82.0 °F 83.4 °F 64.0 °F 54% 29.98 in 10.0 mi Variable 3.5 mph - N/A   Clear
4:51 PM 81.0 °F 83.0 °F 66.0 °F 60% 29.97 in 10.0 mi ESE 3.5 mph - N/A   Clear
5:51 PM 78.1 °F - 64.9 °F 64% 29.96 in 10.0 mi Calm Calm - N/A   Clear
6:51 PM 75.9 °F - 66.0 °F 71% 29.97 in 10.0 mi Variable 3.5 mph - N/A   Clear
7:51 PM 73.0 °F - 66.0 °F 79% 29.98 in 10.0 mi Variable 3.5 mph - N/A   Clear
8:51 PM 73.0 °F - 66.0 °F 79% 29.99 in 10.0 mi Calm Calm - N/A   Clear
9:51 PM 72.0 °F - 66.9 °F 84% 29.99 in 10.0 mi Calm Calm - N/A   Clear
10:51 PM 72.0 °F - 66.0 °F 81% 29.98 in 10.0 mi Calm Calm - N/A   Clear
11:51 PM 71.1 °F - 64.9 °F 81% 29.97 in 10.0 mi Calm Calm - N/A   Clear